{"data":{"norad_id":39234,"epoch":"2026-05-25T02:23:08.127168Z","epoch_age_seconds":56569,"freshness":"FRESH","line1":"1 39234U 13044B   26145.09939962 -.00000079  00000+0  00000+0 0  9993","line2":"2 39234   0.0918  92.6294 0003502 204.7908  55.0639  1.00271514 45023","mean_motion":1.00271514,"eccentricity":0.0003502,"inclination_deg":0.0918,"raan_deg":92.6294,"arg_perigee_deg":204.7908,"mean_anomaly_deg":55.0639,"bstar":0,"rev_number":4502,"period_min":1436.1007853138,"perigee_km":35771.904816761,"apogee_km":35801.437048237,"semimajor_km":42164.807932499,"source":"CELESTRAK","updated_at":"2026-05-25T13:38:13.945111Z"}}